This is the latest recevied weather packets stored in our database for station/object DL5TW-13. If no packets are shown the sender has not sent any weather packets the latest 10 day(s).
| Time | Temp. | Humidity | Pressure | Rain* | Wind** | Luminosity | Snow |
|---|---|---|---|---|---|---|---|
| 1777902820 | 24.44° C | 41% | 1007.6 hPa | 0 mm | - | - | - |
| 1777902520 | 23.89° C | 42% | 1007.6 hPa | 0 mm | - | - | - |
| 1777902220 | 23.89° C | 41% | 1007.8 hPa | 0 mm | - | - | - |
| 1777901919 | 24.44° C | 41% | 1007.7 hPa | 0 mm | - | - | - |
| 1777901619 | 24.44° C | 40% | 1007.8 hPa | 0 mm | - | - | - |
| 1777901319 | 24.44° C | 40% | 1007.9 hPa | 0 mm | - | - | - |
| 1777901018 | 25° C | 39% | 1008 hPa | 0 mm | - | - | - |
| 1777900718 | 25.56° C | 38% | 1008 hPa | 0 mm | - | - | - |
| 1777900418 | 26.67° C | 37% | 1008.1 hPa | 0 mm | - | - | - |
| 1777900118 | 26.67° C | 37% | 1008 hPa | 0 mm | - | - | - |
| 1777899817 | 27.78° C | 36% | 1008.1 hPa | 0 mm | - | - | - |
| 1777899517 | 27.78° C | 35% | 1008 hPa | 0 mm | - | - | - |
| 1777899217 | 27.78° C | 36% | 1008.1 hPa | 0 mm | - | - | - |
| 1777898916 | 27.22° C | 37% | 1008.2 hPa | 0 mm | - | - | - |
| 1777898616 | 26.11° C | 38% | 1008.3 hPa | 0 mm | - | - | - |
| 1777898316 | 25.56° C | 38% | 1008.2 hPa | 0 mm | - | - | - |
| 1777898016 | 25.56° C | 38% | 1008.4 hPa | 0 mm | - | - | - |
| 1777897715 | 25.56° C | 38% | 1008.2 hPa | 0 mm | - | - | - |
| 1777897415 | 26.11° C | 37% | 1008.2 hPa | 0 mm | - | - | - |
| 1777897115 | 26.11° C | 38% | 1008.1 hPa | 0 mm | - | - | - |
| 1777896815 | 26.11° C | 38% | 1008.2 hPa | 0 mm | - | - | - |
| 1777896514 | 26.11° C | 38% | 1008.3 hPa | 0 mm | - | - | - |
| 1777896214 | 25.56° C | 37% | 1008.3 hPa | 0 mm | - | - | - |
| 1777895914 | 25.56° C | 37% | 1008.3 hPa | 0 mm | - | - | - |
| 1777895613 | 26.11° C | 36% | 1008.4 hPa | 0 mm | - | - | - |
* Rain latest hour (hover to see other rain measurements)
** Current wind speed in m/s (hover to see current wind gust speed)